Weather History for KY51 - October, 2011

Change the Weather History Date:

Saturday, October 15, 2011

  Actual Average (KLSE) Record (KLSE)
Temperature  
Mean Temperature 50 °F 50 °F  
Max Temperature 58 °F 60 °F 85 °F (1958)
Min Temperature 42 °F 41 °F 24 °F (1937)
Degree Days  
Heating Degree Days 15 15  
Month to date heating degree days 184  
Since 1 July heating degree days 344  
Cooling Degree Days 0 0  
Month to date cooling degree days 7  
Year to date cooling degree days 781  
Moisture  
Dew Point 37 °F    
Average Humidity 64    
Maximum Humidity 87    
Minimum Humidity 37    
Precipitation  
Precipitation 0.00 in 0.07 in 1.03 in (1911)
Month to date precipitation 1.15  
Year to date precipitation 28.67  
Snow  
Snow 0.00 in 0.00 in T in (2009)
Month to date snowfall 0.0  
Since 1 July snowfall 0.0  
Snow Depth -    
Sea Level Pressure  
Sea Level Pressure 29.81 in    
Wind  
Wind Speed 14 mph (WNW)    
Max Wind Speed 21 mph    
Max Gust Speed 32 mph    
Visibility 10 miles    
Events      
T = Trace of Precipitation, MM = Missing Value Source: NWS Daily Summary

Daily Weather History Graph

Daily Weather History Graph

Search for Another Location

Airport or City:

Trip Planner

Search our weather history database for the weather conditions in past years. The results will help you decide how hot, cold, wet, or windy it might be!

Date:

Astronomy

Oct. 15, 2011 Rise Set
Actual Time 7:17 AM CDT 6:20 PM CDT
Civil Twilight 6:48 AM CDT 6:49 PM CDT
Nautical Twilight 6:15 AM CDT 7:22 PM CDT
Astronomical Twilight 5:42 AM CDT 7:55 PM CDT
Moon 8:09 PM CDT (10/15) 10:49 AM CDT (10/15)
Length of Visible Light 12h 00m
Length of Day
11h 03m
Waning Gibbous, 89% of the Moon is Illuminated
Oct 15
Waning Gibbous
Oct 19
Last Quarter
Oct 26
New
Nov 2
First Quarter
Nov 10
Full

Hourly Weather History & Observations

Time (CDT) Temp. Windchill Dew Point Humidity Pressure Visibility Wind Dir Wind Speed Gust Speed Precip Events Conditions
12:15 AM 48.0 °F - 39.6 °F 73% 29.73 in 10.0 mi WNW 17.3 mph 31.1 mph N/A   Mostly Cloudy
12:35 AM 47.5 °F - 39.0 °F 72% 29.73 in 10.0 mi WNW 20.7 mph 26.5 mph N/A   Scattered Clouds
12:55 AM 47.1 °F - 37.9 °F 70% 29.74 in 10.0 mi WNW 18.4 mph 28.8 mph N/A   Scattered Clouds
1:15 AM 46.8 °F - 37.8 °F 71% 29.74 in 10.0 mi WNW 17.3 mph 25.3 mph N/A   Clear
1:35 AM 46.4 °F 40.1 °F 37.4 °F 71% 29.75 in 10.0 mi WNW 15.0 mph 21.9 mph N/A   Clear
1:55 AM 45.9 °F 39.7 °F 37.4 °F 72% 29.75 in 10.0 mi WNW 13.8 mph 21.9 mph N/A   Clear
2:15 AM 45.7 °F 39.1 °F 37.4 °F 73% 29.76 in 10.0 mi WNW 15.0 mph 23.0 mph N/A   Clear
2:35 AM 45.3 °F 38.7 °F 37.8 °F 75% 29.77 in 10.0 mi WNW 15.0 mph 18.4 mph N/A   Clear
2:55 AM 45.0 °F 39.7 °F 37.8 °F 76% 29.77 in 10.0 mi WNW 10.4 mph 16.1 mph N/A   Clear
3:15 AM 44.6 °F 38.1 °F 37.9 °F 77% 29.77 in 10.0 mi WNW 13.8 mph 18.4 mph N/A   Scattered Clouds
3:35 AM 44.6 °F 39.2 °F 38.3 °F 79% 29.77 in 10.0 mi WNW 10.4 mph 16.1 mph N/A   Scattered Clouds
3:55 AM 44.2 °F 39.2 °F 38.3 °F 80% 29.77 in 10.0 mi WNW 9.2 mph 17.3 mph N/A   Clear
4:15 AM 44.1 °F 38.6 °F 38.3 °F 80% 29.77 in 10.0 mi WNW 10.4 mph 18.4 mph N/A   Clear
4:35 AM 44.1 °F 38.1 °F 38.1 °F 80% 29.78 in 10.0 mi WNW 11.5 mph 18.4 mph N/A   Clear
4:55 AM 44.2 °F 38.4 °F 38.1 °F 79% 29.78 in 10.0 mi WNW 11.5 mph 19.6 mph N/A   Clear
5:15 AM 44.1 °F 38.1 °F 38.1 °F 80% 29.79 in 10.0 mi WNW 11.5 mph - N/A   Clear
5:35 AM 43.9 °F 38.3 °F 38.3 °F 81% 29.79 in 10.0 mi WNW 10.4 mph - N/A   Clear
5:55 AM 43.7 °F 38.1 °F 38.3 °F 81% 29.79 in 10.0 mi West 10.4 mph - N/A   Clear
6:15 AM 43.2 °F 37.4 °F 38.3 °F 83% 29.80 in 10.0 mi West 10.4 mph - N/A   Clear
6:35 AM 42.8 °F 37.5 °F 38.3 °F 84% 29.81 in 10.0 mi West 9.2 mph - N/A   Clear
6:55 AM 42.3 °F 36.8 °F 38.3 °F 86% 29.81 in 10.0 mi West 9.2 mph - N/A   Scattered Clouds
7:15 AM 42.3 °F 36.3 °F 38.5 °F 86% 29.81 in 10.0 mi West 10.4 mph - N/A   Scattered Clouds
7:35 AM 42.3 °F 36.3 °F 38.7 °F 87% 29.81 in 10.0 mi WNW 10.4 mph - N/A   Scattered Clouds
7:55 AM 42.6 °F 36.8 °F 38.7 °F 86% 29.82 in 10.0 mi WNW 10.4 mph - N/A   Scattered Clouds
8:15 AM 43.3 °F 37.7 °F 39.0 °F 85% 29.82 in 10.0 mi West 10.4 mph - N/A   Scattered Clouds
8:35 AM 44.1 °F 38.1 °F 39.0 °F 82% 29.83 in 10.0 mi WNW 11.5 mph - N/A   Clear
8:55 AM 45.1 °F 39.1 °F 39.0 °F 79% 29.83 in 10.0 mi WNW 12.7 mph 19.6 mph N/A   Clear
9:15 AM 46.0 °F 40.2 °F 38.8 °F 76% 29.83 in 10.0 mi WNW 12.7 mph 20.7 mph N/A   Clear
9:35 AM 46.9 °F - 38.7 °F 73% 29.84 in 10.0 mi WNW 15.0 mph 20.7 mph N/A   Clear
9:55 AM 47.8 °F - 38.3 °F 70% 29.85 in 10.0 mi WNW 16.1 mph 20.7 mph N/A   Clear
10:15 AM 48.9 °F - 37.8 °F 65% 29.85 in 10.0 mi WNW 15.0 mph 23.0 mph N/A   Clear
10:35 AM 50.0 °F - 37.4 °F 62% 29.85 in 10.0 mi WNW 15.0 mph 19.6 mph N/A   Scattered Clouds
10:55 AM 50.9 °F - 37.2 °F 59% 29.85 in 10.0 mi West 15.0 mph 24.2 mph N/A   Scattered Clouds
11:15 AM 51.8 °F - 37.6 °F 58% 29.85 in 10.0 mi West 16.1 mph 20.7 mph N/A   Scattered Clouds
11:35 AM 53.1 °F - 37.4 °F 55% 29.84 in 10.0 mi West 16.1 mph 23.0 mph N/A   Scattered Clouds
11:55 AM 53.2 °F - 36.7 °F 53% 29.85 in 10.0 mi West 15.0 mph 24.2 mph N/A   Scattered Clouds
12:15 PM 54.3 °F - 37.6 °F 53% 29.84 in 10.0 mi West 15.0 mph 25.3 mph N/A   Scattered Clouds
12:35 PM 54.7 °F - 36.7 °F 51% 29.85 in 10.0 mi West 17.3 mph 31.1 mph N/A   Scattered Clouds
12:55 PM 54.9 °F - 36.7 °F 50% 29.83 in 10.0 mi West 13.8 mph 26.5 mph N/A   Scattered Clouds
1:15 PM 55.8 °F - 36.9 °F 49% 29.83 in 10.0 mi WNW 20.7 mph 27.6 mph N/A   Scattered Clouds
1:35 PM 56.5 °F - 36.5 °F 47% 29.83 in 10.0 mi WNW 16.1 mph 27.6 mph N/A   Scattered Clouds
1:55 PM 56.7 °F - 36.1 °F 46% 29.82 in 10.0 mi WNW 19.6 mph 24.2 mph N/A   Clear
2:15 PM 56.8 °F - 36.0 °F 46% 29.82 in 10.0 mi West 12.7 mph 25.3 mph N/A   Clear
2:35 PM 57.7 °F - 35.8 °F 44% 29.82 in 10.0 mi West 19.6 mph 32.2 mph N/A   Scattered Clouds
2:55 PM 57.6 °F - 34.3 °F 42% 29.82 in 10.0 mi WNW 18.4 mph 26.5 mph N/A   Clear
3:15 PM 57.7 °F - 34.5 °F 42% 29.81 in 10.0 mi WNW 17.3 mph 23.0 mph N/A   Clear
3:35 PM 58.1 °F - 33.4 °F 39% 29.81 in 10.0 mi WNW 20.7 mph 25.3 mph N/A   Clear
3:55 PM 58.3 °F - 33.4 °F 39% 29.81 in 10.0 mi WNW 16.1 mph 24.2 mph N/A   Clear
4:15 PM 58.3 °F - 32.0 °F 37% 29.81 in 10.0 mi WNW 17.3 mph 25.3 mph N/A   Clear
4:35 PM 58.3 °F - 33.1 °F 39% 29.81 in 10.0 mi West 16.1 mph 23.0 mph N/A   Clear
4:55 PM 57.7 °F - 33.3 °F 40% 29.81 in 10.0 mi West 11.5 mph 21.9 mph N/A   Clear
5:15 PM 56.3 °F - 32.9 °F 41% 29.81 in 10.0 mi West 11.5 mph - N/A   Clear
5:55 PM 55.0 °F - 32.9 °F 43% 29.81 in 10.0 mi West 9.2 mph - N/A   Clear
6:15 PM 54.0 °F - 33.4 °F 46% 29.80 in 10.0 mi West 8.1 mph - N/A   Clear
6:35 PM 53.2 °F - 34.3 °F 49% 29.81 in 10.0 mi West 10.4 mph - N/A   Clear
6:55 PM 53.2 °F - 34.9 °F 50% 29.82 in 10.0 mi West 10.4 mph - N/A   Clear
7:15 PM 53.2 °F - 34.9 °F 50% 29.83 in 10.0 mi West 12.7 mph - N/A   Clear
7:55 PM 53.6 °F - 34.9 °F 49% 29.83 in 10.0 mi West 11.5 mph - N/A   Mostly Cloudy
8:15 PM 53.4 °F - 34.9 °F 49% 29.83 in 10.0 mi West 10.4 mph - N/A   Overcast
8:35 PM 53.1 °F - 35.4 °F 51% 29.83 in 10.0 mi West 12.7 mph - N/A   Overcast
8:55 PM 53.4 °F - 35.6 °F 51% 29.84 in 10.0 mi West 17.3 mph 25.3 mph N/A   Overcast
9:15 PM 51.4 °F - 38.3 °F 61% 29.86 in 7.0 mi West 13.8 mph 25.3 mph 0.01 in   Overcast
9:55 PM 46.9 °F - 41.9 °F 83% 29.85 in 10.0 mi WNW 5.8 mph - 0.04 in   Overcast
10:15 PM 46.4 °F 44.3 °F 42.6 °F 87% 29.84 in 10.0 mi West 4.6 mph - N/A   Overcast
10:35 PM 46.4 °F 45.2 °F 43.0 °F 88% 29.83 in 10.0 mi WSW 3.5 mph - N/A   Overcast
10:55 PM 46.4 °F 42.9 °F 43.5 °F 90% 29.84 in 10.0 mi WSW 6.9 mph - N/A   Overcast
11:15 PM 46.2 °F 45.0 °F 44.1 °F 92% 29.83 in 10.0 mi West 3.5 mph - N/A   Overcast
11:35 PM 46.0 °F 43.9 °F 43.9 °F 92% 29.83 in 10.0 mi West 4.6 mph - N/A   Overcast
11:55 PM 46.4 °F 43.5 °F 43.7 °F 90% 29.82 in 10.0 mi WSW 5.8 mph - N/A   Overcast